Flag for U.S.A. Weather past 2 weeks in Asheville, North Carolina, U.S.A.

Now
67 °F

Clear.


Feels Like: 67 °F
Forecast: 65 / 88 °F
Wind: No wind

Location: Asheville Regional Airport

Current Time: Aug 5, 2015 at 4:52:00 AM

Latest Report: Aug 5, 2015 at 3:54 AM


Visibility: 10 mi

Pressure: 30.03 "Hg (27.85 "Hg at 647m altitude)

Humidity: 87%

Dew point: 63 °F

Location of AshevilleLocation

Historic Weather in Asheville — Graph

°F

Asheville temperature yesterday

Maximum temperature yesterday: 90 °F (at 1:54 PM)
Minimum temperature yesterday: 62 °F (at 6:54 AM)
Average temperature yesterday: 75 °F

Past Weeks' High & Low Weather Summary

 TemperatureHumidityPressure
High90 °F (Jul 30, 3:54 PM)96% (Jul 26, 7:54 AM)30.10 "Hg (Jul 26, 7:54 AM)
Low58 °F (Aug 2, 6:54 AM)29% (Aug 1, 2:54 PM)29.79 "Hg (Jul 21, 4:54 PM)
Average76 °F69%29.96 "Hg
* Reported Jul 21 2:54 AM — Aug 5 2:54 AM, Asheville, Weather by CustomWeather, © 2015

Note: Actual official high and low records may vary slightly from our data, if they occured in-between our weather recording intervals... More about our weather records

Advertising

Asheville weather history for previous 24 hours

 ConditionsComfort  
Time TempWeatherWind HumidityBarometerVisibility
2:54 AM
Wed, Aug 5
68 °FClear.No wind87%30.03 "Hg10 mi
1:54 AM68 °FClear.No wind87%30.04 "Hg10 mi
12:54 AM69 °FClear.3 mph87%30.05 "Hg10 mi
11:54 PM
Tue, Aug 4
70 °FClear.No wind84%30.04 "Hg10 mi
10:54 PM73 °FClear.No wind84%30.03 "Hg10 mi
9:54 PM74 °FClear.No wind82%30.02 "Hg10 mi
8:54 PM77 °FSunny.No wind77%30.00 "Hg10 mi
7:54 PM80 °FSunny.5 mph67%30.00 "Hg10 mi
6:54 PM83 °FSunny.6 mph55%29.99 "Hg10 mi
5:54 PM84 °FSunny.3 mph46%29.98 "Hg10 mi
4:54 PM82 °FSunny.8 mph46%30.00 "Hg10 mi
3:56 PM79 °FThundershowers. Broken clouds.17 mph56%30.09 "Hg10 mi
2:54 PM90 °FSunny.8 mph34%29.98 "Hg10 mi
1:54 PM90 °FSunny.9 mph34%30.00 "Hg10 mi
12:54 PM88 °FSunny.9 mph40%30.01 "Hg10 mi
11:54 AM85 °FSunny.7 mph46%30.01 "Hg10 mi
10:54 AM82 °FSunny.8 mph48%30.02 "Hg10 mi
9:54 AM76 °FSunny.5 mph58%30.02 "Hg10 mi
8:54 AM71 °FSunny.3 mph68%30.01 "Hg10 mi
7:54 AM63 °FSunny.No wind87%30.01 "Hg10 mi
6:54 AM62 °FClear.3 mph86%30.01 "Hg10 mi
5:54 AM63 °FClear.3 mph84%29.99 "Hg10 mi
4:54 AM63 °FClear.6 mph87%29.98 "Hg10 mi
Weather by CustomWeather, © 2015

See weather overviewHow to use our weather pages